| time (UTC) | temp F | wind direction | speed MPH | gust MPH | rain 1hr in | rain 24hr in | rain mn in | humidity % | barometer mb |
| 20260509164634 | 64 | 183 | 4.0 | 7.0 | 0.00 | 0.00 | 0.00 | 46 | 1022.7 |
| 20260509163632 | 65 | 175 | 3.0 | 4.0 | 0.00 | 0.00 | 0.00 | 45 | 1022.7 |
| 20260509162632 | 63 | 200 | 2.0 | 3.0 | 0.00 | 0.00 | 0.00 | 45 | 1023.0 |
| 20260509161631 | 63 | 264 | 1.0 | 3.0 | 0.00 | 0.00 | 0.00 | 46 | 1022.8 |
| 20260509160628 | 63 | 3 | 0.0 | 2.0 | 0.00 | 0.00 | 0.00 | 45 | 1023.0 |
| 20260509155628 | 63 | 9 | 3.0 | 5.0 | 0.00 | 0.00 | 0.00 | 48 | 1022.9 |
| 20260509154620 | 62 | 325 | 3.0 | 4.0 | 0.00 | 0.00 | 0.00 | 48 | 1023.0 |
| 20260509153622 | 62 | 10 | 3.0 | 4.0 | 0.00 | 0.00 | 0.00 | 50 | 1023.0 |
| 20260509152640 | 63 | 44 | 1.0 | 2.0 | 0.00 | 0.00 | 0.00 | 48 | 1023.0 |
| 20260509151658 | 62 | 268 | 1.0 | 3.0 | 0.00 | 0.00 | 0.00 | 49 | 1022.9 |
| 20260509150636 | 61 | 226 | 1.0 | 2.0 | 0.00 | 0.00 | 0.00 | 50 | 1022.9 |
| 20260509145632 | 61 | 209 | 3.0 | 4.0 | 0.00 | 0.00 | 0.00 | 54 | 1022.8 |
| 20260509144630 | 59 | 354 | 2.0 | 4.0 | 0.00 | 0.00 | 0.00 | 55 | 1022.8 |
| 20260509143648 | 58 | 338 | 3.0 | 4.0 | 0.00 | 0.00 | 0.00 | 58 | 1022.7 |
| 20260509142623 | 57 | 15 | 3.0 | 4.0 | 0.00 | 0.00 | 0.00 | 59 | 1022.5 |
| 20260509141622 | 56 | 5 | 4.0 | 4.0 | 0.00 | 0.00 | 0.00 | 60 | 1022.6 |
| 20260509140618 | 55 | 339 | 3.0 | 4.0 | 0.00 | 0.00 | 0.00 | 62 | 1022.6 |
| 20260509135639 | 54 | 357 | 2.0 | 3.0 | 0.00 | 0.00 | 0.00 | 66 | 1022.4 |
| 20260509134633 | 53 | 297 | 1.0 | 2.0 | 0.00 | 0.00 | 0.00 | 68 | 1022.5 |
| 20260509133657 | 52 | 251 | 0.0 | 1.0 | 0.00 | 0.00 | 0.00 | 69 | 1022.2 |
| 20260509132653 | 52 | 231 | 0.0 | 1.0 | 0.00 | 0.00 | 0.00 | 66 | 1022.1 |
| 20260509131648 | 53 | 0.0 | 0.0 | 0.00 | 0.00 | 0.00 | 65 | 1022.2 | |
| 20260509130625 | 52 | 311 | 1.0 | 2.0 | 0.00 | 0.00 | 0.00 | 65 | 1022.1 |
| 20260509125625 | 52 | 336 | 2.0 | 3.0 | 0.00 | 0.00 | 0.00 | 65 | 1022.2 |
| 20260509124620 | 51 | 58 | 0.0 | 1.0 | 0.00 | 0.00 | 0.00 | 68 | 1022.0 |
| 20260509123623 | 51 | 346 | 2.0 | 4.0 | 0.00 | 0.00 | 0.00 | 69 | 1022.0 |
| 20260509122641 | 50 | 257 | 2.0 | 3.0 | 0.00 | 0.00 | 0.00 | 70 | 1021.9 |
| 20260509121656 | 54 | 360 | 5.0 | 7.0 | 0.00 | 0.00 | 0.00 | 62 | 1022.3 |
| 20260509120631 | 54 | 265 | 3.0 | 6.0 | 0.00 | 0.00 | 0.00 | 60 | 1021.9 |
| 20260509115632 | 54 | 251 | 3.0 | 6.0 | 0.00 | 0.00 | 0.00 | 60 | 1022.0 |
| 20260509114627 | 54 | 233 | 2.0 | 4.0 | 0.00 | 0.00 | 0.00 | 61 | 1022.0 |
| 20260509113648 | 54 | 258 | 2.0 | 3.0 | 0.00 | 0.00 | 0.00 | 61 | 1021.8 |
| 20260509112625 | 52 | 75 | 1.0 | 2.0 | 0.00 | 0.00 | 0.00 | 64 | 1022.0 |
| 20260509111620 | 55 | 212 | 2.0 | 4.0 | 0.00 | 0.00 | 0.00 | 58 | 1021.8 |
| 20260509110618 | 52 | 201 | 1.0 | 2.0 | 0.00 | 0.00 | 0.00 | 64 | 1021.9 |
| 20260509105633 | 52 | 0.0 | 1.0 | 0.00 | 0.00 | 0.00 | 63 | 1022.0 | |
| 20260509104635 | 55 | 225 | 2.0 | 3.0 | 0.00 | 0.00 | 0.00 | 58 | 1021.8 |
| 20260509103632 | 56 | 155 | 2.0 | 2.0 | 0.00 | 0.00 | 0.00 | 56 | 1021.7 |
| 20260509102629 | 56 | 249 | 4.0 | 6.0 | 0.00 | 0.00 | 0.00 | 56 | 1021.7 |
| 20260509101625 | 56 | 248 | 3.0 | 4.0 | 0.00 | 0.00 | 0.00 | 56 | 1021.7 |
| 20260509100624 | 57 | 259 | 3.0 | 4.0 | 0.00 | 0.00 | 0.00 | 54 | 1021.7 |
| 20260509095624 | 56 | 211 | 4.0 | 6.0 | 0.00 | 0.00 | 0.00 | 54 | 1021.6 |
| 20260509094620 | 56 | 234 | 3.0 | 4.0 | 0.00 | 0.00 | 0.00 | 54 | 1021.4 |
| 20260509093656 | 57 | 310 | 5.0 | 6.0 | 0.00 | 0.00 | 0.00 | 52 | 1021.2 |
| 20260509092639 | 57 | 247 | 5.0 | 8.0 | 0.00 | 0.00 | 0.00 | 52 | 1021.3 |
| 20260509091631 | 56 | 258 | 5.0 | 9.0 | 0.00 | 0.00 | 0.00 | 54 | 1021.2 |
| 20260509090655 | 57 | 271 | 4.0 | 7.0 | 0.00 | 0.00 | 0.00 | 51 | 1021.3 |
| 20260509085628 | 57 | 253 | 8.0 | 11.0 | 0.00 | 0.00 | 0.00 | 50 | 1021.0 |
| 20260509084630 | 57 | 261 | 5.0 | 9.0 | 0.00 | 0.00 | 0.00 | 49 | 1020.9 |
| 20260509083621 | 58 | 248 | 7.0 | 10.0 | 0.00 | 0.00 | 0.00 | 48 | 1021.1 |
| 20260509082624 | 58 | 252 | 5.0 | 7.0 | 0.00 | 0.00 | 0.00 | 48 | 1021.1 |
| 20260509081621 | 58 | 235 | 6.0 | 9.0 | 0.00 | 0.00 | 0.00 | 47 | 1020.9 |
| 20260509080640 | 58 | 243 | 4.0 | 5.0 | 0.00 | 0.00 | 0.00 | 49 | 1020.9 |
| 20260509075634 | 58 | 192 | 4.0 | 8.0 | 0.00 | 0.00 | 0.00 | 49 | 1021.2 |
| 20260509074635 | 58 | 222 | 3.0 | 4.0 | 0.00 | 0.00 | 0.00 | 47 | 1020.9 |
| 20260509073655 | 60 | 216 | 5.0 | 8.0 | 0.00 | 0.00 | 0.00 | 45 | 1020.8 |
| 20260509072648 | 59 | 224 | 5.0 | 9.0 | 0.00 | 0.00 | 0.00 | 44 | 1020.7 |
| 20260509071629 | 60 | 199 | 3.0 | 4.0 | 0.00 | 0.00 | 0.00 | 44 | 1020.6 |
| 20260509070623 | 59 | 224 | 2.0 | 4.0 | 0.00 | 0.00 | 0.00 | 44 | 1020.5 |
| 20260509065643 | 60 | 229 | 5.0 | 6.0 | 0.00 | 0.00 | 0.00 | 43 | 1020.3 |
| 20260509064620 | 61 | 221 | 3.0 | 5.0 | 0.00 | 0.00 | 0.00 | 42 | 1020.4 |
| 20260509063637 | 62 | 239 | 4.0 | 5.0 | 0.00 | 0.00 | 0.00 | 40 | 1020.1 |
| 20260509062655 | 62 | 244 | 3.0 | 4.0 | 0.00 | 0.00 | 0.00 | 39 | 1020.0 |
| 20260509061630 | 62 | 230 | 3.0 | 7.0 | 0.00 | 0.00 | 0.00 | 39 | 1019.8 |
| 20260509060631 | 62 | 274 | 7.0 | 10.0 | 0.00 | 0.00 | 0.00 | 38 | 1019.9 |
| 20260509055632 | 61 | 243 | 6.0 | 11.0 | 0.00 | 0.00 | 0.00 | 39 | 1019.7 |
| 20260509054628 | 62 | 263 | 4.0 | 7.0 | 0.00 | 0.00 | 0.00 | 37 | 1019.9 |
| 20260509053642 | 61 | 283 | 3.0 | 4.0 | 0.00 | 0.00 | 0.00 | 38 | 1019.7 |
| 20260509052623 | 62 | 307 | 5.0 | 7.0 | 0.00 | 0.00 | 0.00 | 36 | 1019.6 |
| 20260509051619 | 64 | 289 | 9.0 | 13.0 | 0.00 | 0.00 | 0.00 | 34 | 1019.4 |
| 20260509050634 | 63 | 298 | 10.0 | 13.0 | 0.00 | 0.00 | 0.00 | 34 | 1019.3 |
| 20260509045633 | 63 | 297 | 8.0 | 11.0 | 0.00 | 0.00 | 0.00 | 33 | 1019.1 |
| 20260509044634 | 63 | 256 | 4.0 | 7.0 | 0.00 | 0.00 | 0.00 | 35 | 1019.2 |
| 20260509043652 | 62 | 225 | 5.0 | 6.0 | 0.00 | 0.00 | 0.00 | 35 | 1019.2 |
| 20260509042626 | 64 | 233 | 3.0 | 4.0 | 0.00 | 0.00 | 0.00 | 33 | 1019.0 |
| 20260509041627 | 64 | 238 | 3.0 | 3.0 | 0.00 | 0.00 | 0.00 | 31 | 1018.9 |
| 20260509040626 | 66 | 268 | 3.0 | 6.0 | 0.00 | 0.00 | 0.00 | 29 | 1018.6 |
| 20260509035620 | 66 | 308 | 10.0 | 11.0 | 0.00 | 0.00 | 0.00 | 27 | 1018.4 |
| 20260509034637 | 67 | 292 | 8.0 | 10.0 | 0.00 | 0.00 | 0.00 | 26 | 1018.2 |
| 20260509033638 | 67 | 287 | 5.0 | 6.0 | 0.00 | 0.00 | 0.00 | 27 | 1018.1 |
| 20260509032656 | 67 | 272 | 4.0 | 8.0 | 0.00 | 0.00 | 0.00 | 26 | 1018.1 |
| 20260509031655 | 66 | 308 | 4.0 | 5.0 | 0.00 | 0.00 | 0.00 | 27 | 1017.6 |
| 20260509030633 | 68 | 293 | 4.0 | 5.0 | 0.00 | 0.00 | 0.00 | 24 | 1017.3 |
| 20260509025631 | 69 | 358 | 7.0 | 12.0 | 0.00 | 0.00 | 0.00 | 22 | 1017.0 |
| 20260509024624 | 70 | 360 | 5.0 | 9.0 | 0.00 | 0.00 | 0.00 | 21 | 1017.2 |
| 20260509023624 | 71 | 332 | 6.0 | 7.0 | 0.00 | 0.00 | 0.00 | 21 | 1017.0 |
| 20260509022622 | 73 | 343 | 7.0 | 11.0 | 0.00 | 0.00 | 0.00 | 20 | 1016.8 |
| 20260509021625 | 74 | 318 | 10.0 | 14.0 | 0.00 | 0.00 | 0.00 | 23 | 1016.7 |
| 20260509020641 | 75 | 304 | 12.0 | 16.0 | 0.00 | 0.00 | 0.00 | 22 | 1016.3 |
| 20260509015637 | 76 | 313 | 9.0 | 13.0 | 0.00 | 0.00 | 0.00 | 21 | 1016.5 |
| 20260509014631 | 76 | 312 | 8.0 | 12.0 | 0.00 | 0.00 | 0.00 | 19 | 1016.3 |
| 20260509013651 | 76 | 241 | 3.0 | 4.0 | 0.00 | 0.00 | 0.00 | 23 | 1016.5 |
| 20260509012631 | 76 | 229 | 6.0 | 12.0 | 0.00 | 0.00 | 0.00 | 25 | 1016.3 |
| 20260509011623 | 76 | 225 | 6.0 | 8.0 | 0.00 | 0.00 | 0.00 | 26 | 1016.3 |
| 20260509010622 | 76 | 214 | 6.0 | 11.0 | 0.00 | 0.00 | 0.00 | 25 | 1016.2 |
| 20260509005620 | 76 | 205 | 8.0 | 15.0 | 0.00 | 0.00 | 0.00 | 25 | 1016.1 |
| 20260509004641 | 76 | 210 | 9.0 | 14.0 | 0.00 | 0.00 | 0.00 | 24 | 1016.2 |
| 20260509003634 | 77 | 204 | 7.0 | 10.0 | 0.00 | 0.00 | 0.00 | 23 | 1016.0 |
| 20260509002638 | 78 | 301 | 12.0 | 15.0 | 0.00 | 0.00 | 0.00 | 16 | 1016.2 |
| 20260509001629 | 78 | 282 | 7.0 | 12.0 | 0.00 | 0.00 | 0.00 | 17 | 1015.9 |
| 20260509000652 | 78 | 260 | 9.0 | 13.0 | 0.00 | 0.00 | 0.00 | 16 | 1016.1 |
| 20260508235625 | 78 | 299 | 11.0 | 16.0 | 0.00 | 0.00 | 0.00 | 15 | 1016.2 |
| 20260508234622 | 78 | 286 | 11.0 | 18.0 | 0.00 | 0.00 | 0.00 | 15 | 1016.1 |
| 20260508233620 | 79 | 322 | 10.0 | 12.0 | 0.00 | 0.00 | 0.00 | 14 | 1015.9 |
| 20260508232621 | 78 | 344 | 12.0 | 16.0 | 0.00 | 0.00 | 0.00 | 16 | 1016.1 |
| 20260508231636 | 75 | 202 | 10.0 | 16.0 | 0.00 | 0.00 | 0.00 | 23 | 1016.0 |
| 20260508230634 | 76 | 196 | 10.0 | 15.0 | 0.00 | 0.00 | 0.00 | 21 | 1015.8 |
| 20260508225631 | 76 | 211 | 12.0 | 16.0 | 0.00 | 0.00 | 0.00 | 21 | 1016.0 |
| 20260508224631 | 76 | 209 | 10.0 | 17.0 | 0.00 | 0.00 | 0.00 | 21 | 1016.1 |
| 20260508223647 | 75 | 210 | 8.0 | 11.0 | 0.00 | 0.00 | 0.00 | 22 | 1016.3 |
| 20260508222648 | 75 | 213 | 12.0 | 18.0 | 0.00 | 0.00 | 0.00 | 21 | 1016.3 |
| 20260508221625 | 75 | 181 | 4.0 | 6.0 | 0.00 | 0.00 | 0.00 | 23 | 1016.1 |
| 20260508220631 | 75 | 209 | 9.0 | 13.0 | 0.00 | 0.00 | 0.00 | 22 | 1016.2 |
| 20260508215619 | 76 | 219 | 10.0 | 15.0 | 0.00 | 0.00 | 0.00 | 23 | 1016.2 |
| 20260508214638 | 76 | 248 | 5.0 | 12.0 | 0.00 | 0.00 | 0.00 | 24 | 1016.2 |
| 20260508213654 | 76 | 224 | 7.0 | 16.0 | 0.00 | 0.00 | 0.00 | 25 | 1016.4 |
| 20260508212711 | 75 | 214 | 10.0 | 17.0 | 0.00 | 0.00 | 0.00 | 23 | 1016.4 |
| 20260508211628 | 74 | 218 | 11.0 | 18.0 | 0.00 | 0.00 | 0.00 | 24 | 1016.4 |
| 20260508210629 | 74 | 215 | 14.0 | 21.0 | 0.00 | 0.00 | 0.00 | 24 | 1016.3 |
| 20260508205625 | 74 | 212 | 11.0 | 17.0 | 0.00 | 0.00 | 0.00 | 25 | 1016.3 |
| 20260508204621 | 74 | 215 | 7.0 | 14.0 | 0.00 | 0.00 | 0.00 | 26 | 1016.3 |
| 20260508203622 | 73 | 228 | 6.0 | 10.0 | 0.00 | 0.00 | 0.00 | 28 | 1016.4 |
| 20260508202623 | 72 | 214 | 11.0 | 15.0 | 0.00 | 0.00 | 0.00 | 27 | 1016.3 |
| 20260508201640 | 72 | 223 | 10.0 | 15.0 | 0.00 | 0.00 | 0.00 | 28 | 1016.4 |
| 20260508200634 | 72 | 229 | 8.0 | 13.0 | 0.00 | 0.00 | 0.00 | 28 | 1016.6 |
| 20260508195631 | 71 | 221 | 10.0 | 15.0 | 0.00 | 0.00 | 0.00 | 26 | 1016.5 |
| 20260508194629 | 71 | 217 | 7.0 | 13.0 | 0.00 | 0.00 | 0.00 | 27 | 1016.5 |
| 20260508193650 | 71 | 229 | 8.0 | 11.0 | 0.00 | 0.00 | 0.00 | 28 | 1016.3 |
| 20260508192644 | 71 | 211 | 7.0 | 10.0 | 0.00 | 0.00 | 0.00 | 28 | 1016.3 |
| 20260508191624 | 71 | 208 | 7.0 | 10.0 | 0.00 | 0.00 | 0.00 | 28 | 1016.5 |
| 20260508190622 | 72 | 266 | 7.0 | 11.0 | 0.00 | 0.00 | 0.00 | 28 | 1016.5 |
| 20260508185619 | 71 | 207 | 7.0 | 14.0 | 0.00 | 0.00 | 0.00 | 28 | 1016.6 |
| 20260508184655 | 71 | 196 | 10.0 | 11.0 | 0.00 | 0.00 | 0.00 | 29 | 1016.8 |
| 20260508183634 | 70 | 215 | 9.0 | 12.0 | 0.00 | 0.00 | 0.00 | 29 | 1016.7 |
| 20260508182635 | 69 | 203 | 7.0 | 9.0 | 0.00 | 0.00 | 0.00 | 31 | 1016.9 |
| 20260508181627 | 69 | 208 | 10.0 | 14.0 | 0.00 | 0.00 | 0.00 | 31 | 1016.9 |
| 20260508180627 | 68 | 225 | 5.0 | 8.0 | 0.00 | 0.00 | 0.00 | 34 | 1016.9 |
| 20260508175630 | 67 | 210 | 8.0 | 15.0 | 0.00 | 0.00 | 0.00 | 39 | 1016.9 |
| 20260508174643 | 67 | 217 | 9.0 | 12.0 | 0.00 | 0.00 | 0.00 | 37 | 1016.9 |
| 20260508173622 | 65 | 202 | 10.0 | 12.0 | 0.00 | 0.00 | 0.00 | 43 | 1016.9 |
| 20260508172623 | 64 | 202 | 7.0 | 11.0 | 0.00 | 0.00 | 0.00 | 46 | 1016.9 |
| 20260508171658 | 63 | 200 | 6.0 | 7.0 | 0.00 | 0.00 | 0.00 | 49 | 1016.9 |
| 20260508170633 | 64 | 200 | 7.0 | 9.0 | 0.00 | 0.00 | 0.00 | 48 | 1016.8 |
| 20260508165632 | 64 | 221 | 6.0 | 8.0 | 0.00 | 0.00 | 0.00 | 45 | 1016.7 |